User: anonymous   Login
Location: Columbia
(38.9520°N, 92.3340°W)
Time: 17:57:02
(UTC-06:00)
Language:

FENGYUN 3A - Orbit

View from above orbital plane
View from above orbital plane
View from above satellite
View from above satellite

Ground track
Ground track

The orbit data is extracted from the following two-line orbital elements,

1 32958U 08026A   17326.50983892  .00000058  00000-0  46764-4 0  9990
2 32958  98.3956 347.1805 0009565 172.5515 187.5807 14.19682964491794
Epoch (UTC): 22 November 2017 12:14:10
Eccentricity: 0.0009565
inclination: 98.3956°
perigee height: 819 km
apogee height: 833 km
right ascension of ascending node: 347.1805°
argument of perigee: 172.5515°
revolutions per day: 14.19682964
mean anomaly at epoch: 187.5807°
orbit number at epoch: 49179

The dashed part of the orbit path shows where the satellite is in the earth's shadow,  

DLR